DCMPY EDDN-EDDC

Flight info

Callsign DCMPY
Flight time N/A
Altitude 27000
Route ERETO1C/10 ERETO Z715 ABKIS Q240 DRN
Aircraft LJ35/M-SGHRWXY/SB1

Departure

Time N/A
Airport Nuremberg Airport (EDDN)

Arrival

Time 2026-04-28 15:13
Airport Dresden Airport (EDDC)
Time Latitude Longitude Altitude Speed Heading
2026-04-28 14:54 50.57769 12.89845 20467 ft 435 kts 60°
2026-04-28 14:54 50.59154 12.94058 19724 ft 432 kts 60°
2026-04-28 14:54 50.60524 12.98240 18996 ft 428 kts 60°
2026-04-28 14:55 50.61893 13.02383 18271 ft 424 kts 58°
2026-04-28 14:55 50.63562 13.06177 17443 ft 417 kts 47°
2026-04-28 14:55 50.65509 13.09533 16641 ft 414 kts 48°
2026-04-28 14:55 50.67203 13.13130 15861 ft 411 kts 46°
2026-04-28 14:56 50.69357 13.16013 15095 ft 404 kts 30°
2026-04-28 14:56 50.71930 13.17681 14338 ft 398 kts 12°
2026-04-28 14:56 50.74670 13.18171 13555 ft 393 kts
2026-04-28 14:56 50.77390 13.18160 12764 ft 390 kts 358°
2026-04-28 14:57 50.80108 13.18105 11997 ft 389 kts 359°
2026-04-28 14:57 50.81897 13.18221 11495 ft 389 kts
2026-04-28 14:57 50.84575 13.18652 10756 ft 378 kts
2026-04-28 14:57 50.87767 13.19119 10248 ft 314 kts
2026-04-28 14:58 50.89796 13.19295 10233 ft 272 kts
2026-04-28 14:58 50.91576 13.19477 10229 ft 249 kts
2026-04-28 14:58 50.92713 13.19611 10181 ft 246 kts
2026-04-28 14:58 50.94443 13.19817 9656 ft 251 kts
2026-04-28 14:59 50.96200 13.20016 9141 ft 254 kts
2026-04-28 14:59 50.97971 13.20214 8648 ft 256 kts
2026-04-28 14:59 50.99758 13.20419 8157 ft 258 kts
2026-04-28 14:59 51.01556 13.20621 7675 ft 260 kts
2026-04-28 15:00 51.03344 13.20864 7208 ft 261 kts
2026-04-28 15:00 51.05073 13.21771 6730 ft 264 kts 26°
2026-04-28 15:00 51.06575 13.23453 6232 ft 264 kts 43°
2026-04-28 15:00 51.07684 13.25734 5724 ft 257 kts 60°
2026-04-28 15:01 51.08408 13.28233 5282 ft 239 kts 65°
2026-04-28 15:01 51.09081 13.30563 5234 ft 225 kts 64°
2026-04-28 15:01 51.09729 13.32793 5230 ft 222 kts 64°
2026-04-28 15:01 51.10165 13.35102 5233 ft 222 kts 83°
2026-04-28 15:02 51.10043 13.37553 5236 ft 226 kts 101°
2026-04-28 15:02 51.09365 13.39842 5234 ft 232 kts 121°
2026-04-28 15:02 51.08192 13.41618 5229 ft 236 kts 144°
2026-04-28 15:02 51.06654 13.42586 5169 ft 245 kts 166°
2026-04-28 15:03 51.04920 13.42534 5027 ft 255 kts 187°
2026-04-28 15:03 51.03282 13.41416 4964 ft 259 kts 217°
2026-04-28 15:03 51.01964 13.39519 4987 ft 253 kts 223°
2026-04-28 15:03 51.00665 13.37674 4975 ft 247 kts 220°
2026-04-28 15:04 50.99244 13.36261 4964 ft 243 kts 202°
2026-04-28 15:04 50.97632 13.35596 4967 ft 238 kts 184°
2026-04-28 15:04 50.96002 13.35703 4964 ft 233 kts 166°
2026-04-28 15:04 50.94482 13.36515 4732 ft 232 kts 149°
2026-04-28 15:05 50.93179 13.38013 4475 ft 232 kts 132°
2026-04-28 15:05 50.92136 13.39939 4229 ft 226 kts 123°
2026-04-28 15:05 50.91483 13.42063 3983 ft 204 kts 99°
2026-04-28 15:05 50.91359 13.44155 3962 ft 179 kts 82°
2026-04-28 15:06 50.91612 13.45947 3963 ft 171 kts 66°
2026-04-28 15:06 50.92267 13.47748 3963 ft 185 kts 49°
2026-04-28 15:06 50.93160 13.49054 3971 ft 165 kts 40°
2026-04-28 15:06 50.94002 13.50190 3964 ft 158 kts 40°
2026-04-28 15:07 50.94886 13.51367 3964 ft 167 kts 39°
2026-04-28 15:07 50.95746 13.52545 3950 ft 155 kts 41°
2026-04-28 15:07 50.96533 13.53622 3939 ft 144 kts 40°
2026-04-28 15:07 50.97230 13.54567 3941 ft 128 kts 40°
2026-04-28 15:08 50.97930 13.55524 3948 ft 137 kts 40°
2026-04-28 15:08 50.98676 13.56547 3952 ft 152 kts 40°
2026-04-28 15:08 50.99490 13.57664 3959 ft 156 kts 39°
2026-04-28 15:08 51.00270 13.58733 3938 ft 143 kts 41°
2026-04-28 15:09 51.01013 13.59755 3787 ft 140 kts 41°
2026-04-28 15:09 51.01753 13.60753 3600 ft 141 kts 41°
2026-04-28 15:09 51.02510 13.61809 3397 ft 148 kts 43°
2026-04-28 15:09 51.03287 13.62859 3188 ft 148 kts 41°
2026-04-28 15:10 51.04069 13.63937 2990 ft 149 kts 42°
2026-04-28 15:10 51.04829 13.64982 2791 ft 139 kts 42°
2026-04-28 15:10 51.05548 13.65960 2601 ft 133 kts 42°
2026-04-28 15:10 51.06246 13.66917 2424 ft 132 kts 42°
2026-04-28 15:11 51.06944 13.67879 2247 ft 134 kts 41°
2026-04-28 15:11 51.07664 13.68870 2052 ft 138 kts 43°
2026-04-28 15:11 51.08390 13.69862 1867 ft 138 kts 42°
2026-04-28 15:11 51.09113 13.70861 1680 ft 137 kts 43°
2026-04-28 15:12 51.09799 13.71810 1485 ft 125 kts 40°
2026-04-28 15:12 51.10420 13.72673 1317 ft 119 kts 41°
2026-04-28 15:12 51.11057 13.73530 1191 ft 116 kts 40°
2026-04-28 15:12 51.11670 13.74348 1064 ft 114 kts 40°
2026-04-28 15:13 51.12301 13.75245 821 ft 133 kts 36°
2026-04-28 15:13 51.12943 13.76123 745 ft 103 kts 41°
2026-04-28 15:13 51.13267 13.76575 738 ft 33 kts 42°
2026-04-28 15:13 51.13370 13.76746 731 ft 9 kts 71°
2026-04-28 15:14 51.13351 13.76801 731 ft 9 kts 155°
2026-04-28 15:14 51.13305 13.76862 730 ft 0 kts 129°
2026-04-28 15:15 51.13301 13.76869 730 ft 5 kts 128°
2026-04-28 15:15 51.13256 13.76950 729 ft 9 kts 132°
2026-04-28 15:15 51.13185 13.76935 733 ft 13 kts 221°
2026-04-28 15:15 51.13100 13.76818 738 ft 21 kts 220°
2026-04-28 15:16 51.12990 13.76664 742 ft 18 kts 220°
2026-04-28 15:16 51.12872 13.76505 742 ft 26 kts 221°
2026-04-28 15:16 51.12729 13.76306 745 ft 29 kts 220°
2026-04-28 15:16 51.12603 13.76136 750 ft 20 kts 218°
2026-04-28 15:17 51.12504 13.75998 755 ft 17 kts 221°
2026-04-28 15:17 51.12424 13.75931 758 ft 11 kts 128°
2026-04-28 15:17 51.12362 13.76029 754 ft 13 kts 173°
2026-04-28 15:17 51.12294 13.75952 757 ft 6 kts 171°
2026-04-28 15:18 51.12288 13.75960 755 ft 0 kts 121°